This demonstration page uses our WeatherBlox Daily Observations layout. Learn more.

Left ArrowRight Arrow

40.92945, -100.16068

Hourly Observations for November 26, 2022

Temp ( °F °C ) Dew Point ( °F °C ) Humidity (%) Winds ( mph kmh ) Pressure ( in mb ) Visibility ( mi km ) Precip ( " mm )
12:15 am 00:15 Clear 26 -3.5 14 -9.8 62 62 Calm 30.17 1022 10 16 0.00 0.00
12:35 am 00:35 Clear 26 -3.3 15 -9.6 62 62 Calm 30.16 1021 10 16 0.00 0.00
12:55 am 00:55 Clear 27 -2.6 15 -9.4 59 59 SSE 3 6 30.14 1021 10 16 0.00 0.00
1:15 am 01:15 Clear 24 -4.2 13 -10.3 62 62 SSE 8 13 30.16 1021 10 16 0.00 0.00
1:35 am 01:35 Clear 27 -2.8 16 -9.1 62 62 S 6 9 30.13 1020 10 16 0.00 0.00
1:55 am 01:55 Clear 28 -2.2 15 -9.2 59 59 S 8 13 30.11 1020 10 16 0.00 0.00
2:15 am 02:15 Clear 27 -2.8 15 -9.2 61 61 S 5 7 30.12 1020 10 16 0.00 0.00
2:35 am 02:35 Clear 27 -2.6 15 -9.6 58 58 Calm 30.11 1020 10 16 0.00 0.00
2:55 am 02:55 Clear 26 -3.2 15 -9.7 61 61 SSE 5 7 30.11 1020 10 16 0.00 0.00
3:15 am 03:15 Clear 29 -1.7 16 -9 57 57 SSW 3 6 30.08 1019 10 16 0.00 0.00
3:35 am 03:35 Clear 25 -4 12 -10.9 59 59 S 3 6 30.10 1019 10 16 0.00 0.00
3:55 am 03:55 Clear 26 -3.4 15 -9.3 64 64 S 7 11 30.08 1019 10 16 0.00 0.00
4:15 am 04:15 Clear 30 -1.3 15 -9.3 54 54 SSW 7 11 30.06 1018 10 16 0.00 0.00
4:35 am 04:35 Clear 31 -0.4 17 -8.6 54 54 SSW 6 9 30.02 1017 10 16 0.00 0.00
4:55 am 04:55 Clear 32 0 16 -9 51 51 Calm 30.01 1016 10 16 0.00 0.00
5:15 am 05:15 Clear 33 0.3 15 -9.7 47 47 WSW 7 11 29.98 1015 10 16 0.00 0.00
5:35 am 05:35 Clear 25 -3.9 13 -10.4 60 60 NW 8 13 30.01 1016 10 16 0.00 0.00
5:55 am 05:55 Clear 23 -5 13 -10.5 65 65 NW 7 11 30.00 1016 10 16 0.00 0.00
6:15 am 06:15 Clear 23 -5 13 -10.6 65 65 NNW 5 7 30.00 1016 10 16 0.00 0.00
6:35 am 06:35 Clear 23 -5.1 14 -10.2 67 67 NNW 10 17 29.97 1015 10 16 0.00 0.00
6:55 am 06:55 Clear 25 -4.1 13 -10.3 62 62 Calm 29.97 1015 10 16 0.00 0.00
7:15 am 07:15 Clear 23 -4.9 13 -10.3 66 66 S 10 17 30.04 1017 10 16 0.00 0.00
7:35 am 07:35 Clear 27 -3 14 -10 58 58 SSE 5 7 30.00 1016 10 16 0.00 0.00
7:55 am 07:55 Sunny 25 -3.8 13 -10.6 59 59 SSW 3 6 30.00 1016 10 16 0.00 0.00
8:15 am 08:15 Sunny 28 -2.5 14 -9.8 57 57 S 8 13 30.00 1016 10 16 0.00 0.00
8:35 am 08:35 Sunny 31 -0.3 15 -9.2 51 51 S 6 9 29.96 1015 10 16 0.00 0.00
8:55 am 08:55 Sunny 32 0 15 -9.2 50 50 S 3 6 29.95 1014 10 16 0.00 0.00
9:15 am 09:15 Sunny 34 0.9 15 -9.2 47 47 Calm 29.94 1014 10 16 0.00 0.00
9:35 am 09:35 Sunny 35 1.9 17 -8.6 46 46 W 5 7 29.94 1014 10 16 0.00 0.00
9:55 am 09:55 Sunny 38 3.5 15 -9.2 39 39 NNW 7 11 29.90 1013 10 16 0.00 0.00
10:15 am 10:15 Sunny 41 4.9 15 -9.3 35 35 W 6 9 29.90 1012 10 16 0.00 0.00
10:35 am 10:35 Sunny 42 5.3 16 -9.1 34 34 WSW 5 7 29.87 1012 10 16 0.00 0.00
10:55 am 10:55 Sunny 43 5.9 16 -9.1 33 33 WSW 7 11 29.85 1011 10 16 0.00 0.00
11:15 am 11:15 Sunny 45 7 16 -8.9 31 31 SW 7 11 29.84 1010 10 16 0.00 0.00
11:35 am 11:35 Sunny 46 7.5 16 -8.7 31 31 WSW 6 9 29.81 1010 10 16 0.00 0.00
11:55 am 11:55 Sunny 48 8.9 17 -8.4 28 28 WSW 6 9 29.79 1009 10 16 0.00 0.00
12:15 pm 12:15 Sunny 51 10.6 18 -8 26 26 SSW 6 9 29.77 1008 10 16 0.00 0.00
12:35 pm 12:35 Sunny 52 11.2 18 -7.9 25 25 WSW 5 7 29.76 1008 10 16 0.00 0.00
12:55 pm 12:55 Sunny 54 12.3 18 -7.6 24 24 WSW 3 6 29.76 1008 10 16 0.00 0.00
1:15 pm 13:15 Sunny 56 13.1 19 -7.5 23 23 WNW 3 6 29.74 1007 10 16 0.00 0.00
1:35 pm 13:35 Sunny 57 14 19 -7.2 22 22 WSW 6 9 29.71 1006 10 16 0.00 0.00
1:55 pm 13:55 Sunny 59 14.9 19 -7.1 21 21 W 6 9 29.70 1006 10 16 0.00 0.00
2:15 pm 14:15 Sunny 59 15.1 19 -7 21 21 W 5 7 29.70 1006 10 16 0.00 0.00
2:35 pm 14:35 Sunny 60 15.3 20 -6.8 21 21 NW 5 7 29.70 1006 10 16 0.00 0.00
2:55 pm 14:55 Sunny 60 15.8 20 -6.5 21 21 NW 10 17 29.69 1005 10 16 0.00 0.00
3:15 pm 15:15 Sunny 60 15.6 21 -6.2 22 22 NNW 9 15 29.69 1005 10 16 0.00 0.00
3:35 pm 15:35 Partly Cloudy 59 15.2 21 -6 23 23 NNW 5 7 29.69 1006 10 16 0.00 0.00
3:55 pm 15:55 Mostly Cloudy 59 14.8 22 -5.5 24 24 N 12 19 29.70 1006 10 16 0.00 0.00
4:15 pm 16:15 Cloudy 58 14.5 23 -4.9 26 26 NNE 9 15 29.71 1006 10 16 0.00 0.00
4:35 pm 16:35 Cloudy 57 14 24 -4.5 27 27 NNE 9 15 29.71 1006 10 16 0.00 0.00
4:55 pm 16:55 Cloudy 57 13.7 26 -3.3 31 31 NNE 17 28 29.73 1007 10 16 0.00 0.00
5:15 pm 17:15 Cloudy 56 13.1 26 -3.2 32 32 N 17 28 29.73 1007 10 16 0.00 0.00
5:35 pm 17:35 Cloudy 54 12.4 27 -3 34 34 NNE 20 31 29.74 1007 10 16 0.00 0.00
5:55 pm 17:55 Cloudy 54 12 27 -2.6 36 36 NNE 15 24 29.74 1007 10 16 0.00 0.00
6:15 pm 18:15 Cloudy 53 11.8 28 -2.2 38 38 N 20 31 29.75 1008 10 16 0.00 0.00
6:35 pm 18:35 Cloudy 53 11.5 28 -2 39 39 NNE 16 26 29.78 1008 10 16 0.00 0.00
6:55 pm 18:55 Cloudy 51 10.7 29 -1.6 42 42 NNE 14 22 29.79 1009 10 16 0.00 0.00
7:15 pm 19:15 Mostly Cloudy 49 9.6 29 -1.6 45 45 N 10 17 29.82 1010 10 16 0.00 0.00
7:35 pm 19:35 Partly Cloudy 48 8.9 29 -1.5 48 48 N 14 22 29.83 1010 10 16 0.00 0.00
7:55 pm 19:55 Clear 45 7.2 29 -1.7 53 53 N 17 28 29.86 1011 10 16 0.00 0.00
8:15 pm 20:15 Clear 45 7.2 28 -2.3 51 51 N 18 30 29.86 1011 10 16 0.00 0.00
8:35 pm 20:35 Clear 44 6.6 28 -2.5 52 52 N 20 31 29.87 1012 10 16 0.00 0.00
8:55 pm 20:55 Clear 42 5.7 28 -2.5 55 55 N 18 30 29.88 1012 10 16 0.00 0.00
9:15 pm 21:15 Clear 41 5 28 -2.5 58 58 N 18 30 29.89 1012 10 16 0.00 0.00
9:35 pm 21:35 Clear 40 4.5 26 -3.3 57 57 N 18 30 29.89 1012 10 16 0.00 0.00
9:55 pm 21:55 Clear 39 3.9 26 -3.6 58 58 N 22 35 29.91 1013 10 16 0.00 0.00
10:15 pm 22:15 Clear 38 3.6 26 -3.1 61 61 N 21 33 29.91 1013 10 16 0.00 0.00
10:35 pm 22:35 Clear 38 3.2 26 -3.3 62 62 N 18 30 29.91 1013 10 16 0.00 0.00
10:55 pm 22:55 Clear 37 2.9 26 -3.3 64 64 N 20 31 29.93 1014 10 16 0.00 0.00
11:15 pm 23:15 Clear 37 2.5 26 -3.5 64 64 N 17 28 29.95 1014 10 16 0.00 0.00
11:35 pm 23:35 Clear 36 2 26 -3.5 67 67 N 18 30 29.96 1014 10 16 0.00 0.00
11:55 pm 23:55 Clear 35 1.6 26 -3.5 69 69 N 20 31 29.96 1015 10 16 0.00 0.00

Powered by AerisWeather